TimePST,TemperatureF,Dew PointF,Humidity,Sea Level PressureIn,VisibilityMPH,Wind Direction,Wind SpeedMPH,Gust SpeedMPH,PrecipitationIn,Events,Conditions,WindDirDegrees,DateUTC
12:56 AM,46.0,34.0,63,29.86,10.0,NNW,10.4,-,N/A,,Clear,340,2012-11-30 08:56:00
1:56 AM,44.1,35.1,71,29.85,10.0,West,6.9,-,N/A,,Clear,260,2012-11-30 09:56:00
2:56 AM,48.0,36.0,63,29.83,10.0,South,17.3,24.2,N/A,,Partly Cloudy,190,2012-11-30 10:56:00
3:56 AM,46.9,35.1,63,29.83,10.0,SW,8.1,-,N/A,,Scattered Clouds,220,2012-11-30 11:56:00
4:56 AM,48.0,36.0,63,29.83,10.0,South,18.4,26.5,N/A,,Overcast,180,2012-11-30 12:56:00
5:56 AM,46.9,36.0,66,29.84,10.0,South,13.8,20.7,N/A,,Overcast,180,2012-11-30 13:56:00
6:56 AM,48.0,35.1,61,29.85,10.0,South,18.4,27.6,N/A,,Overcast,180,2012-11-30 14:56:00
7:56 AM,48.0,35.1,61,29.84,10.0,South,16.1,27.6,N/A,,Overcast,170,2012-11-30 15:56:00
8:56 AM,48.9,35.1,59,29.83,10.0,South,19.6,32.2,N/A,,Scattered Clouds,180,2012-11-30 16:56:00
9:56 AM,51.1,35.1,54,29.83,10.0,South,20.7,31.1,N/A,,Overcast,180,2012-11-30 17:56:00
10:56 AM,53.1,34.0,48,29.81,10.0,SSW,23.0,32.2,N/A,,Overcast,200,2012-11-30 18:56:00
11:56 AM,53.1,35.1,50,29.79,10.0,SSW,13.8,26.5,N/A,,Overcast,210,2012-11-30 19:56:00
12:56 PM,52.0,37.9,59,29.78,10.0,SW,9.2,-,0.00,,Overcast,230,2012-11-30 20:56:00
1:56 PM,50.0,37.9,63,29.80,10.0,SSW,12.7,-,0.00,,Overcast,210,2012-11-30 21:56:00
2:56 PM,48.0,39.0,71,29.83,10.0,SW,11.5,-,0.00,,Overcast,220,2012-11-30 22:56:00
3:56 PM,46.0,39.9,79,29.84,10.0,South,9.2,-,0.01,,Overcast,190,2012-11-30 23:56:00
5:56 PM,44.1,41.0,89,29.87,9.0,SSW,8.1,-,0.05,Rain,Light Rain,200,2012-12-01 01:56:00
7:56 PM,44.1,41.0,89,29.88,10.0,West,4.6,-,N/A,,Overcast,260,2012-12-01 03:56:00
8:56 PM,41.0,39.0,93,29.90,10.0,ESE,4.6,-,N/A,,Scattered Clouds,110,2012-12-01 04:56:00
10:56 PM,42.1,39.9,92,29.91,10.0,Calm,Calm,-,N/A,,Overcast,0,2012-12-01 06:56:00
11:56 PM,41.0,39.0,93,29.91,10.0,Calm,Calm,-,N/A,,Mostly Cloudy,0,2012-12-01 07:56:00